Home > Weather > Mo i Rana > Past weeks

Flag for Norway Past Weather in Mo i Rana, Norway — Yesterday and Last 2 Weeks

Now
61 °F

Sunny.


Feels Like: 61 °F
Forecast: 42 / 69 °F
Wind: 10 mph from Northwest

Location: Mo I Rana / Rossvoll

Current Time: May 26, 2016 at 6:34:40 PM

Latest Report: May 26, 2016 at 5:50 PM


Visibility: 10 mi

Pressure: 30.21 "Hg

Humidity: 36%

Dew Point: 34 °F

Location of Mo i RanaLocation

Past Weather in Mo i Rana — Graph

°F

Mo i Rana Temperature Yesterday

Maximum temperature yesterday: 54 °F (at 5:20 PM)
Minimum temperature yesterday: 41 °F (at 3:50 AM)
Average temperature yesterday: 49 °F

High & Low Weather Summary for the Past Weeks

 TemperatureHumidityPressure
High64 °F (May 22, 4:20 PM)100% (May 14, 6:50 AM)30.30 "Hg (May 14, 6:50 AM)
Low32 °F (May 19, 5:20 AM)32% (May 11, 5:20 PM)29.53 "Hg (May 17, 1:50 AM)
Average44 °F72%29.87 "Hg
* Reported May 11 5:20 PM — May 26 5:20 PM, Mo i Rana, Weather by CustomWeather, © 2016

Note: Actual official high and low records may vary slightly from our data, if they occured in-between our weather recording intervals... More about our weather records

Advertising

Mo i Rana Weather History for the Previous 24 Hours

Scroll right to see more
 ConditionsComfort  
Time TempWeatherWind HumidityBarometerVisibility
5:20 PM
Thu, May 26
59 °FSunny.10 mph39%30.21 "Hg10 mi
4:50 PM61 °FSunny.13 mph36%30.21 "Hg10 mi
4:20 PM61 °FPassing clouds.13 mph36%30.21 "HgN/A
3:50 PM61 °FPassing clouds.8 mph36%30.21 "HgN/A
3:20 PM61 °FSunny.8 mph36%30.21 "Hg10 mi
1:50 PM59 °FSunny.9 mph42%30.21 "Hg10 mi
12:50 PM59 °FSunny.9 mph42%30.24 "Hg10 mi
11:50 AM57 °FSunny.9 mph44%30.24 "Hg10 mi
10:50 AM55 °FSunny.9 mph47%30.27 "Hg10 mi
9:50 AM54 °FSunny.6 mph51%30.27 "Hg10 mi
9:20 AM52 °FSunny.6 mph54%30.27 "Hg10 mi
8:20 AM48 °FSunny.6 mph62%30.27 "Hg10 mi
7:50 AM46 °FSunny.3 mph66%30.27 "Hg10 mi
7:20 AM48 °FSunny.2 mph62%30.27 "Hg10 mi
6:50 AM43 °FSunny.3 mph76%30.27 "Hg10 mi
6:20 AM41 °FSunny.5 mph81%30.27 "Hg10 mi
5:50 AM39 °FSunny.5 mph87%30.27 "Hg10 mi
10:50 PM
Wed, May 25
46 °FPartly sunny.6 mph66%30.30 "HgN/A
9:50 PM48 °FPartly sunny.7 mph62%30.30 "HgN/A
9:20 PM48 °FPartly sunny.8 mph58%30.30 "HgN/A
8:50 PM50 °FPartly sunny.7 mph54%30.30 "HgN/A
7:50 PM50 °FPartly sunny.7 mph54%30.30 "HgN/A
7:20 PM50 °FPartly sunny.8 mph54%30.30 "HgN/A
6:50 PM50 °FPartly sunny.7 mph50%30.30 "HgN/A
6:20 PM50 °FPartly sunny.9 mph50%30.30 "HgN/A
Weather by CustomWeather, © 2016

See weather overviewHow to use our weather pages